When you browse on this site, cookies collect data to enhance your experience and personalize the content and advertising you see.
Visit our Privacy Policy to learn more. By continuing to use the site, you agree to this use of cookies and data.
  • In Portugal
  • List of Countries
  • For 7 days
  • Water Temperature
  • Satellite Maps
  • Weather Map
  • Weather Widgets
  • user-avatar
    Login

    Hourly Weather Stanislavovo

    Today, 18 April, Thursday

    Time Temperature Precipitation Wind Pressure Humidity
    00:00 +5°C° 0 mm 0 mps 756 mmHg 70%
    01:00 +5°C° 0 mm 0 mps 756 mmHg 71%
    02:00 +4°C° 0 mm 0 mps 756 mmHg 69%
    03:00 +4°C° 0 mm 0 mps 756 mmHg 70%
    04:00 +5°C° 0 mm 1 mps 756 mmHg 71%
    05:00 +5°C° 0 mm 1 mps 756 mmHg 72%
    06:00 +5°C° 0 mm 2 mps 756 mmHg 69%
    07:00 +7°C° 0 mm 2 mps 755 mmHg 65%
    08:00 +8°C° 0 mm 2 mps 756 mmHg 63%
    09:00 +10°C° 0 mm 3 mps 755 mmHg 57%
    10:00 +11°C° 0 mm 3 mps 755 mmHg 52%
    11:00 +13°C° 0 mm 4 mps 755 mmHg 46%
    12:00 +13°C° 0 mm 5 mps 755 mmHg 44%
    13:00 +14°C° 0 mm 5 mps 754 mmHg 42%
    14:00 +14°C° 0 mm 6 mps 754 mmHg 40%
    15:00 +14°C° 0 mm 6 mps 754 mmHg 42%
    16:00 +13°C° 0 mm 6 mps 754 mmHg 45%
    17:00 +11°C° 0 mm 6 mps 753 mmHg 47%
    18:00 +10°C° 0 mm 5 mps 754 mmHg 51%
    19:00 +8°C° 0 mm 5 mps 754 mmHg 55%
    20:00 +6°C° 0 mm 4 mps 754 mmHg 59%
    21:00 +6°C° 0 mm 4 mps 755 mmHg 60%
    22:00 +5°C° 0 mm 4 mps 755 mmHg 61%
    23:00 +5°C° 0 mm 4 mps 755 mmHg 62%

    Tomorrow, 19 April, Friday

    Time Temperature Precipitation Wind Pressure Humidity
    00:00 +4°C° 0 mm 4 mps 755 mmHg 66%
    01:00 +4°C° 0 mm 3 mps 756 mmHg 69%
    02:00 +3°C° 0 mm 3 mps 756 mmHg 72%
    03:00 +2°C° 0 mm 3 mps 756 mmHg 76%
    04:00 +2°C° 0 mm 3 mps 756 mmHg 79%
    05:00 +1°C° 0 mm 3 mps 756 mmHg 82%
    06:00 +3°C° 0 mm 3 mps 756 mmHg 76%
    07:00 +4°C° 0 mm 3 mps 757 mmHg 69%
    08:00 +7°C° 0 mm 3 mps 757 mmHg 63%
    09:00 +8°C° 0 mm 3 mps 757 mmHg 56%
    10:00 +10°C° 0 mm 4 mps 757 mmHg 50%
    11:00 +11°C° 0 mm 4 mps 757 mmHg 43%
    12:00 +12°C° 0 mm 3 mps 757 mmHg 41%
    13:00 +12°C° 0 mm 3 mps 757 mmHg 39%
    14:00 +13°C° 0 mm 3 mps 757 mmHg 37%
    15:00 +12°C° 0 mm 3 mps 756 mmHg 38%
    16:00 +13°C° 0 mm 2 mps 756 mmHg 39%
    17:00 +13°C° 0 mm 2 mps 756 mmHg 40%
    18:00 +12°C° 0 mm 2 mps 756 mmHg 45%
    19:00 +10°C° 0 mm 1 mps 756 mmHg 50%
    20:00 +9°C° 0 mm 1 mps 756 mmHg 55%
    21:00 +8°C° 0 mm 1 mps 756 mmHg 55%
    22:00 +8°C° 0 mm 1 mps 755 mmHg 56%
    23:00 +8°C° 0 mm 1 mps 755 mmHg 56%

    Day after tomorrow, 20 April, Saturday

    Time Temperature Precipitation Wind Pressure Humidity
    00:00 +8°C° 0 mm 1 mps 755 mmHg 58%
    01:00 +8°C° 0 mm 1 mps 755 mmHg 59%
    02:00 +6°C° 0 mm 2 mps 755 mmHg 60%
    03:00 +6°C° 0 mm 2 mps 754 mmHg 62%
    04:00 +6°C° 0 mm 2 mps 754 mmHg 63%
    05:00 +6°C° 0 mm 2 mps 754 mmHg 65%
    06:00 +6°C° 0.1 mm 2 mps 754 mmHg 67%
    07:00 +7°C° 0.1 mm 2 mps 753 mmHg 70%
    08:00 +8°C° 0.1 mm 2 mps 753 mmHg 72%
    09:00 +8°C° 0.2 mm 2 mps 753 mmHg 74%
    10:00 +8°C° 0.2 mm 2 mps 753 mmHg 75%
    11:00 +9°C° 0.2 mm 2 mps 753 mmHg 77%
    12:00 +9°C° 0.2 mm 2 mps 752 mmHg 74%
    13:00 +10°C° 0.2 mm 2 mps 752 mmHg 71%
    14:00 +10°C° 0.2 mm 2 mps 752 mmHg 67%
    15:00 +12°C° 0.3 mm 2 mps 752 mmHg 68%
    16:00 +12°C° 0.3 mm 2 mps 751 mmHg 68%
    17:00 +12°C° 0.3 mm 2 mps 751 mmHg 68%
    18:00 +10°C° 0.4 mm 2 mps 751 mmHg 72%
    19:00 +10°C° 0.4 mm 1 mps 751 mmHg 75%
    20:00 +8°C° 0.4 mm 1 mps 751 mmHg 79%
    21:00 +8°C° 0 mm 1 mps 751 mmHg 79%
    22:00 +6°C° 0 mm 2 mps 751 mmHg 80%
    23:00 +5°C° 0 mm 2 mps 751 mmHg 80%

    21 April, Sunday

    Time Temperature Precipitation Wind Pressure Humidity
    00:00 +5°C° 0 mm 2 mps 751 mmHg 82%
    01:00 +4°C° 0 mm 2 mps 751 mmHg 84%
    02:00 +4°C° 0 mm 2 mps 751 mmHg 86%
    03:00 +4°C° 0 mm 2 mps 751 mmHg 87%
    04:00 +4°C° 0 mm 2 mps 751 mmHg 89%
    05:00 +3°C° 0 mm 2 mps 751 mmHg 91%
    06:00 +5°C° 0 mm 2 mps 751 mmHg 88%
    07:00 +6°C° 0 mm 2 mps 751 mmHg 85%
    08:00 +8°C° 0 mm 3 mps 752 mmHg 82%
    09:00 +9°C° 0.3 mm 3 mps 752 mmHg 77%
    10:00 +11°C° 0.3 mm 4 mps 752 mmHg 73%
    11:00 +12°C° 0.3 mm 5 mps 752 mmHg 68%
    12:00 +12°C° 0.5 mm 5 mps 752 mmHg 65%
    13:00 +13°C° 0.5 mm 5 mps 752 mmHg 62%
    14:00 +13°C° 0.5 mm 4 mps 752 mmHg 59%
    15:00 +13°C° 0.2 mm 4 mps 752 mmHg 58%
    16:00 +13°C° 0.2 mm 4 mps 752 mmHg 57%
    17:00 +13°C° 0.2 mm 3 mps 752 mmHg 56%
    18:00 +12°C° 0 mm 3 mps 752 mmHg 62%
    19:00 +10°C° 0 mm 3 mps 753 mmHg 68%
    20:00 +8°C° 0 mm 3 mps 753 mmHg 75%
    21:00 +8°C° 0 mm 2 mps 753 mmHg 76%
    22:00 +7°C° 0 mm 2 mps 754 mmHg 78%
    23:00 +7°C° 0 mm 2 mps 754 mmHg 80%

    22 April, Monday

    Time Temperature Precipitation Wind Pressure Humidity
    00:00 +6°C° 0 mm 2 mps 754 mmHg 80%
    01:00 +6°C° 0 mm 2 mps 755 mmHg 81%
    02:00 +5°C° 0 mm 2 mps 755 mmHg 81%
    03:00 +5°C° 0 mm 2 mps 755 mmHg 81%
    04:00 +5°C° 0 mm 2 mps 755 mmHg 81%
    05:00 +4°C° 0 mm 2 mps 755 mmHg 81%
    06:00 +6°C° 0 mm 2 mps 756 mmHg 75%
    07:00 +8°C° 0 mm 2 mps 756 mmHg 69%
    08:00 +9°C° 0 mm 2 mps 757 mmHg 64%
    09:00 +12°C° 0 mm 2 mps 757 mmHg 57%
    10:00 +12°C° 0 mm 3 mps 757 mmHg 49%
    11:00 +13°C° 0 mm 3 mps 757 mmHg 42%
    12:00 +13°C° 0 mm 3 mps 757 mmHg 42%
    13:00 +13°C° 0 mm 3 mps 757 mmHg 42%
    14:00 +13°C° 0 mm 3 mps 757 mmHg 41%
    15:00 +13°C° 0 mm 3 mps 757 mmHg 42%
    16:00 +13°C° 0 mm 3 mps 757 mmHg 43%
    17:00 +14°C° 0 mm 2 mps 757 mmHg 43%
    18:00 +12°C° 0 mm 2 mps 757 mmHg 48%
    19:00 +10°C° 0 mm 2 mps 757 mmHg 54%
    20:00 +8°C° 0 mm 2 mps 757 mmHg 59%
    21:00 +8°C° 0 mm 2 mps 758 mmHg 59%
    22:00 +8°C° 0 mm 1 mps 758 mmHg 60%
    23:00 +8°C° 0 mm 1 mps 758 mmHg 61%

    23 April, Tuesday

    Time Temperature Precipitation Wind Pressure Humidity
    00:00 +7°C° 0 mm 1 mps 758 mmHg 62%
    01:00 +7°C° 0 mm 1 mps 758 mmHg 63%
    02:00 +7°C° 0 mm 1 mps 759 mmHg 63%
    03:00 +7°C° 0 mm 1 mps 759 mmHg 63%
    04:00 +7°C° 0 mm 1 mps 759 mmHg 63%
    05:00 +7°C° 0 mm 1 mps 759 mmHg 63%
    06:00 +8°C° 0 mm 1 mps 759 mmHg 60%
    07:00 +10°C° 0 mm 1 mps 759 mmHg 56%
    08:00 +12°C° 0 mm 1 mps 760 mmHg 52%
    09:00 +13°C° 0 mm 2 mps 760 mmHg 47%
    10:00 +14°C° 0 mm 2 mps 760 mmHg 42%
    11:00 +14°C° 0 mm 3 mps 759 mmHg 38%
    12:00 +14°C° 0 mm 3 mps 759 mmHg 38%
    13:00 +14°C° 0 mm 3 mps 759 mmHg 39%
    14:00 +16°C° 0 mm 3 mps 759 mmHg 40%
    15:00 +14°C° 0 mm 3 mps 759 mmHg 41%
    16:00 +14°C° 0 mm 3 mps 758 mmHg 43%
    17:00 +14°C° 0 mm 3 mps 758 mmHg 45%
    18:00 +13°C° 0 mm 2 mps 758 mmHg 50%
    19:00 +12°C° 0 mm 2 mps 758 mmHg 55%
    20:00 +9°C° 0 mm 2 mps 758 mmHg 60%
    21:00 +9°C° 0 mm 2 mps 758 mmHg 61%
    22:00 +8°C° 0 mm 2 mps 758 mmHg 63%
    23:00 +7°C° 0 mm 2 mps 758 mmHg 65%
    Show more